Latest Coastal Weather Observations for Esperance Harbour

IDW60701

Issued at 2:03 am WST Thursday 21 September 2017 (issued every 10 minutes, with the page automatically refreshed every 10 minutes)

About coastal observations | Map of coastal stations | Coastal observations for WA | Marine services | Other Formats
Station Details ID: 109504 Name: ESPERANCE NTC AWS Lat: -33.87 Lon: 121.90 Height: 0.0 m
Data from the previous 72 hours. | See also: Recent months for locations in Western Australia
Date/Time
WST
Temp
°C
Wind Pressure Rain since
9am
mm
Weather Cloud Vis
km
Sea
Height
m
Swell
Dir  Spd
kts
Gust
kts
hPa Trend Height
m
Period
s
Dir
21/02:00am 14.6 - - - 1008.0 - - - - - - - - -
21/01:30am 14.0 - - - 1008.5 - - - - - - - - -
21/01:00am 13.7 - - - 1008.8 - - - - - - - - -
21/12:30am 13.5 - - - 1009.4 - - - - - - - - -
21/12:00am 13.3 - - - 1009.9 - - - - - - - - -
 
Date/Time
WST
Temp
°C
Wind Pressure Rain since
9am
mm
Weather Cloud Vis
km
Sea
Height
m
Swell
Dir  Spd
kts
Gust
kts
hPa Trend Height
m
Period
s
Dir
20/11:30pm 13.9 - - - 1010.1 - - - - - - - - -
20/11:00pm 13.7 - - - 1010.5 - - - - - - - - -
20/10:30pm 13.9 - - - 1010.8 - - - - - - - - -
20/10:00pm 14.1 - - - 1011.0 - - - - - - - - -
20/09:30pm 14.5 - - - 1011.3 - - - - - - - - -
20/09:00pm 14.9 - - - 1011.4 - - - - - - - - -
20/08:30pm 15.5 - - - 1011.5 - - - - - - - - -
20/08:00pm 15.5 - - - 1011.3 - - - - - - - - -
20/07:30pm 17.3 - - - 1011.5 - - - - - - - - -
20/07:00pm 16.8 - - - 1011.6 - - - - - - - - -
20/06:30pm 16.0 - - - 1011.3 - - - - - - - - -
20/06:00pm 16.3 - - - 1011.1 - - - - - - - - -
20/05:30pm 16.8 - - - 1011.1 - - - - - - - - -
20/05:00pm 17.0 - - - 1011.1 - - - - - - - - -
20/04:30pm 17.4 - - - 1011.0 - - - - - - - - -
20/04:00pm 18.0 - - - 1010.7 - - - - - - - - -
20/03:30pm 18.3 - - - 1010.6 - - - - - - - - -
20/03:00pm 17.8 - - - 1010.7 - - - - - - - - -
20/02:30pm 18.4 - - - 1010.6 - - - - - - - - -
20/02:00pm 18.1 - - - 1010.9 - - - - - - - - -
20/01:30pm 16.8 - - - 1010.9 - - - - - - - - -
20/01:00pm 16.8 - - - 1010.9 - - - - - - - - -
20/12:30pm 16.1 - - - 1011.0 - - - - - - - - -
20/12:00pm 15.9 - - - 1011.3 - - - - - - - - -
20/11:30am 16.0 - - - 1011.3 - - - - - - - - -
20/11:00am 15.6 - - - 1011.2 - - - - - - - - -
20/10:30am 15.0 - - - 1011.5 - - - - - - - - -
20/10:00am 15.5 - - - 1011.6 - - - - - - - - -
20/09:30am 15.6 - - - 1011.5 - - - - - - - - -
20/09:00am 15.5 - - - 1011.5 - - - - - - - - -
20/08:30am 15.1 - - - 1011.6 - - - - - - - - -
20/08:00am 15.0 - - - 1011.7 - - - - - - - - -
20/07:30am 14.9 - - - 1011.6 - - - - - - - - -
20/07:00am 14.8 - - - 1011.5 - - - - - - - - -
20/06:30am 14.6 - - - 1011.5 - - - - - - - - -
20/06:00am 14.8 - - - 1011.1 - - - - - - - - -
20/05:30am 15.0 - - - 1010.9 - - - - - - - - -
20/05:00am 14.8 - - - 1011.4 - - - - - - - - -
20/04:30am 14.8 - - - 1011.3 - - - - - - - - -
20/04:00am 15.1 - - - 1011.2 - - - - - - - - -
20/03:30am 15.3 - - - 1011.0 - - - - - - - - -
20/03:00am 15.4 - - - 1010.9 - - - - - - - - -
20/02:30am 15.9 - - - 1011.1 - - - - - - - - -
20/02:00am 16.4 - - - 1011.5 - - - - - - - - -
20/01:30am 16.4 - - - 1011.5 - - - - - - - - -
20/01:00am 16.4 - - - 1011.9 - - - - - - - - -
20/12:30am 16.6 - - - 1012.1 - - - - - - - - -
20/12:00am 16.8 - - - 1012.4 - - - - - - - - -
 
Date/Time
WST
Temp
°C
Wind Pressure Rain since
9am
mm
Weather Cloud Vis
km
Sea
Height
m
Swell
Dir  Spd
kts
Gust
kts
hPa Trend Height
m
Period
s
Dir
19/11:30pm 17.0 - - - 1012.6 - - - - - - - - -
19/11:00pm 17.0 - - - 1012.6 - - - - - - - - -
19/10:30pm 17.3 - - - 1012.7 - - - - - - - - -
19/10:00pm 17.3 - - - 1012.8 - - - - - - - - -
19/09:30pm 17.8 - - - 1013.0 - - - - - - - - -
19/09:00pm 18.1 - - - 1013.0 - - - - - - - - -
19/08:30pm 18.6 - - - 1013.0 - - - - - - - - -
19/08:00pm 18.8 - - - 1012.7 - - - - - - - - -
19/07:30pm 18.7 - - - 1011.9 - - - - - - - - -
19/07:00pm 18.5 - - - 1011.3 - - - - - - - - -
19/06:30pm 18.7 - - - 1010.7 - - - - - - - - -
19/06:00pm 19.5 - - - 1010.0 - - - - - - - - -
19/05:30pm 18.8 - - - 1009.4 - - - - - - - - -
19/05:00pm 20.2 - - - 1009.3 - - - - - - - - -
19/04:30pm 20.8 - - - 1009.1 - - - - - - - - -
19/04:00pm 20.7 - - - 1009.0 - - - - - - - - -
19/03:30pm 21.2 - - - 1008.9 - - - - - - - - -
19/03:00pm 22.1 - - - 1009.0 - - - - - - - - -
19/02:30pm 21.2 - - - 1009.2 - - - - - - - - -
19/02:00pm 22.8 - - - 1009.5 - - - - - - - - -
19/01:30pm 23.7 - - - 1009.7 - - - - - - - - -
19/01:00pm 22.9 - - - 1010.3 - - - - - - - - -
19/12:30pm 21.7 - - - 1010.9 - - - - - - - - -
19/12:00pm 21.0 - - - 1011.9 - - - - - - - - -
19/11:30am 20.5 - - - 1012.3 - - - - - - - - -
19/11:00am 20.7 - - - 1012.8 - - - - - - - - -
19/10:30am 24.4 - - - 1012.9 - - - - - - - - -
19/10:00am 23.5 - - - 1013.4 - - - - - - - - -
19/09:30am 22.4 - - - 1013.6 - - - - - - - - -
19/09:00am 21.4 - - - 1013.8 - - - - - - - - -
19/08:30am 20.3 - - - 1014.2 - - - - - - - - -
19/08:00am 19.5 - - - 1014.4 - - - - - - - - -
19/07:30am 18.7 - - - 1014.7 - - - - - - - - -
19/07:00am 18.0 - - - 1014.6 - - - - - - - - -
19/06:30am 17.8 - - - 1014.6 - - - - - - - - -
19/06:00am 16.7 - - - 1014.8 - - - - - - - - -
19/05:30am 16.4 - - - 1014.9 - - - - - - - - -
19/05:00am 16.2 - - - 1014.9 - - - - - - - - -
19/04:30am 16.5 - - - 1015.0 - - - - - - - - -
19/04:00am 16.0 - - - 1015.0 - - - - - - - - -
19/03:30am 15.9 - - - 1014.9 - - - - - - - - -
19/03:00am 15.4 - - - 1015.0 - - - - - - - - -
19/02:30am 15.4 - - - 1015.3 - - - - - - - - -
19/02:00am 15.4 - - - 1015.7 - - - - - - - - -
19/01:30am 14.9 - - - 1016.2 - - - - - - - - -
19/01:00am 14.6 - - - 1016.8 - - - - - - - - -
19/12:30am 14.0 - - - 1017.3 - - - - - - - - -
19/12:00am 13.5 - - - 1017.7 - - - - - - - - -
 
Date/Time
WST
Temp
°C
Wind Pressure Rain since
9am
mm
Weather Cloud Vis
km
Sea
Height
m
Swell
Dir  Spd
kts
Gust
kts
hPa Trend Height
m
Period
s
Dir
18/11:30pm 13.6 - - - 1018.2 - - - - - - - - -
18/11:00pm 13.0 - - - 1018.6 - - - - - - - - -
18/10:30pm 12.4 - - - 1019.3 - - - - - - - - -
18/10:00pm 12.8 - - - 1019.9 - - - - - - - - -
18/09:30pm 13.2 - - - 1020.5 - - - - - - - - -
18/09:00pm 13.8 - - - 1021.3 - - - - - - - - -
18/08:30pm 14.0 - - - 1021.6 - - - - - - - - -
18/08:00pm 14.2 - - - 1021.5 - - - - - - - - -
18/07:30pm 14.3 - - - 1021.2 - - - - - - - - -
18/07:00pm 14.6 - - - 1020.8 - - - - - - - - -
18/06:30pm 14.8 - - - 1020.9 - - - - - - - - -
18/06:00pm 15.1 - - - 1021.2 - - - - - - - - -
18/05:30pm 15.6 - - - 1021.4 - - - - - - - - -
18/05:00pm 15.9 - - - 1021.5 - - - - - - - - -
18/04:30pm 16.5 - - - 1021.7 - - - - - - - - -
18/04:00pm 16.3 - - - 1021.8 - - - - - - - - -
18/03:30pm 15.9 - - - 1022.1 - - - - - - - - -
18/03:00pm 16.1 - - - 1022.2 - - - - - - - - -
18/02:30pm 16.0 - - - 1022.3 - - - - - - - - -
18/02:00pm 16.2 - - - 1022.7 - - - - - - - - -
18/01:30pm 16.1 - - - 1023.0 - - - - - - - - -
18/01:00pm 15.3 - - - 1023.3 - - - - - - - - -
18/12:30pm 15.1 - - - 1023.8 - - - - - - - - -
18/12:00pm 14.8 - - - 1024.0 - - - - - - - - -
18/11:30am 14.9 - - - 1024.5 - - - - - - - - -
18/11:00am 14.7 - - - 1024.7 - - - - - - - - -
18/10:30am 14.4 - - - 1025.1 - - - - - - - - -
18/10:00am 14.4 - - - 1025.3 - - - - - - - - -
18/09:30am 14.0 - - - 1025.6 - - - - - - - - -
18/09:00am 13.9 - - - 1025.4 - - - - - - - - -
18/08:30am 13.7 - - - 1025.4 - - - - - - - - -
18/08:00am 13.2 - - - 1025.4 - - - - - - - - -
18/07:30am 13.4 - - - 1025.3 - - - - - - - - -
18/07:00am 12.9 - - - 1024.7 - - - - - - - - -
18/06:30am 12.9 - - - 1024.6 - - - - - - - - -
18/06:00am 12.9 - - - 1024.2 - - - - - - - - -
18/05:30am 12.9 - - - 1023.9 - - - - - - - - -
18/05:00am 13.2 - - - 1023.9 - - - - - - - - -
18/04:30am 13.3 - - - 1023.4 - - - - - - - - -
18/04:00am 13.6 - - - 1023.1 - - - - - - - - -
18/03:30am 13.7 - - - 1022.8 - - - - - - - - -
18/03:00am 13.7 - - - 1022.5 - - - - - - - - -
18/02:30am 13.7 - - - 1022.3 - - - - - - - - -

Other Formats:

Comma delimited format used in spreadsheet applications
http://www.bom.gov.au/fwo/IDW60701/IDW60701.95648.axf

JavaScript Object Notation format (JSON) in row-major order
http://www.bom.gov.au/fwo/IDW60701/IDW60701.95648.json